SL-12 R/B(2), 36118

Orbit data source: Space-Track

SL-12 R/B(2), 36118 is space debris in MEO originally from a launch on Mon, 14 Dec 2009 UTC launched from the Tyuratam Missile And Space Complex (TTMTR). Debris objects in space refer to the collection of defunct objects orbiting the Earth. Examples of debris include non-operational satellites, rocket bodies, and fragments generated from explosions, collisions, or faulty payload assembly.

Loading next visibility...
Identifier
36118, 2009-070H
Orbit
MEO
Country
Flag of CISCIS
Related business
Manufacturer
RKKE
Mission
Spacecraft
Bus & Motor
BLOK DM2, 11D58M
Mass
2,440 kg wet, 2,440 kg dry
Launch date (UTC)
2009-12-14 (16 years ago)
Launch vehicle
Unknown
Launch site
Tyuratam Missile And Space Complex (TTMTR)
Object type
Payload
Rocket body
Debris
Shape & HBR
Cyl, 3.5 m
Radar Cross Section
26.008 m², Large (>1 m²)

Expand to show TLE details & history
Last TLE update: 1 day ago

TLE from 1 day ago
0 SL-12 R/B(2)
1 36118U 09070H   25348.21016828 -.00000057  00000-0  00000-0 0  9998
2 36118  64.8999  76.6368 0029291 204.2849 338.2433  2.13352853124649
Epoch: 2025-12-14T05:02Z
TLE epoch observation values (Epoch: 2025-12-14T05:02:38.539Z)
Latitude
-2.22053°
Longitude
98.89325°
Altitude
19,041.363 km
Speed
3.965 km/s
True Right ascension
17h 10m 43s
True Declination
-2° 13' 01"
Sunlit
Object was in daylight at epoch
Visualization orbit readout
Latitude
Unknown
Longitude
Unknown
Altitude
Unknown
Speed
Unknown
Apparent Right ascension
Unknown
Apparent Declination
Unknown
Sunlit
N/A
Visualization observer readout
Local Sidereal Time
13:23:44
Azimuth
Unknown
Elevation
Unknown
Doppler factor
Unknown
Orbital elements
Apogee altitude
19,184.163 km
Perigee altitude
19,034.851 km
Semi-major axis
25,487.644 km
Eccentricity
0.00293
Inclination
64.8999°
RAAN
76.6368°
Arg. of periapsis
204.2849°
True anomaly
338.11846°
Mean anomaly
338.2433°
Eccentric anomaly
338.18092°
Mean motion
0.53339 °/min
Orbital period
674.92 mins
BSTAR
0
Loading maneuver chart data...
Computing Atmospheric mass density...

Documentation

Showing up to 5 results
|